Weather History for Mullan Pass, ID

Change the Weather History Date:

Friday, August 23, 2013

  Actual Average (K3TH) Record (K3TH)
Temperature  
Mean Temperature 59 °F -  
Max Temperature 66 °F 83 °F 96 °F (1999)
Min Temperature 54 °F 52 °F 46 °F (1996)
Degree Days  
Heating Degree Days 6    
Growing Degree Days 9 (Base 50)    
Moisture  
Dew Point 46 °F    
Average Humidity 63    
Maximum Humidity 77    
Minimum Humidity 51    
Precipitation  
Precipitation 0.00 in - - ()
Sea Level Pressure  
Sea Level Pressure 29.77 in    
Wind  
Wind Speed 3 mph (SSW)    
Max Wind Speed 12 mph    
Max Gust Speed -    
Visibility 10 miles    
Events Rain    
Averages and records for this station are not official NWS values.
T = Trace of Precipitation, MM = Missing Value Source: NWS Daily Summary

Daily Weather History Graph

Daily Weather History Graph

Search for Another Location

Airport:

Trip Planner

Search our weather history database for the weather conditions in past years. The results will help you decide how hot, cold, wet, or windy it might be!

Date:

Astronomy

Aug. 23, 2013 Rise Set
Actual Time 5:49 AM PDT 7:39 PM PDT
Civil Twilight 5:17 AM PDT 8:12 PM PDT
Nautical Twilight 4:36 AM PDT 8:52 PM PDT
Astronomical Twilight 3:52 AM PDT 9:35 PM PDT
Moon 8:41 PM PDT (8/23) 9:06 AM PDT (8/23)
Length of Visible Light 14h 54m
Length of Day
13h 49m
Waning Gibbous, 91% of the Moon is Illuminated
Aug 23
Waning Gibbous
Aug 28
Last Quarter
Sep 5
New
Sep 12
First Quarter
Sep 19
Full

Hourly Weather History & Observations

Time (PDT) Temp. Dew Point Humidity Pressure Visibility Wind Dir Wind Speed Gust Speed Precip Events Conditions
12:53 AM 55.9 °F 44.1 °F 64% 29.81 in 10.0 mi SSW 3.5 mph - 0.00 in   Overcast
1:53 AM 59.0 °F 41.0 °F 51% 29.78 in 10.0 mi WSW 4.6 mph - N/A   Mostly Cloudy
2:53 AM 54.0 °F 46.0 °F 75% 29.77 in 10.0 mi SSE 11.5 mph - N/A   Partly Cloudy
3:53 AM 59.0 °F 42.1 °F 53% 29.73 in 10.0 mi SSE 3.5 mph - N/A   Clear
4:53 AM 57.9 °F 43.0 °F 58% 29.75 in 10.0 mi Calm Calm - N/A   Clear
5:53 AM 55.0 °F 45.0 °F 69% 29.75 in 10.0 mi Calm Calm - N/A   Overcast
6:53 AM 54.0 °F 46.9 °F 77% 29.76 in 10.0 mi SSE 6.9 mph - N/A   Partly Cloudy
7:53 AM 55.9 °F 46.9 °F 72% 29.75 in 10.0 mi South 4.6 mph - N/A   Clear
8:53 AM 60.1 °F 46.0 °F 60% 29.73 in 10.0 mi Calm Calm - N/A   Clear
9:53 AM 61.0 °F 46.0 °F 58% 29.73 in 10.0 mi Calm Calm - N/A   Clear
10:53 AM 62.1 °F 48.0 °F 60% 29.74 in 10.0 mi Calm Calm - N/A   Scattered Clouds
11:26 AM 62.6 °F 48.2 °F 59% 30.03 in 10.0 mi Calm Calm - N/A   Mostly Cloudy
11:53 AM 63.0 °F 48.9 °F 60% 29.75 in 10.0 mi Calm Calm - N/A   Mostly Cloudy
12:02 PM 64.4 °F 48.2 °F 56% 30.03 in 10.0 mi Calm Calm - N/A   Overcast
12:53 PM 64.0 °F 48.9 °F 58% 29.75 in 10.0 mi Calm Calm - N/A   Mostly Cloudy
1:53 PM 64.9 °F 48.0 °F 54% 29.73 in 10.0 mi Variable 4.6 mph - N/A   Scattered Clouds
2:53 PM 64.9 °F 48.0 °F 54% 29.75 in 10.0 mi Variable 4.6 mph - N/A   Mostly Cloudy
3:53 PM 64.0 °F 48.9 °F 58% 29.73 in 10.0 mi Variable 5.8 mph - 0.00 in Rain Light Rain
4:53 PM 60.1 °F 48.9 °F 67% 29.75 in 10.0 mi Calm Calm - 0.00 in   Overcast
5:53 PM 61.0 °F 48.0 °F 62% 29.75 in 10.0 mi Variable 3.5 mph - N/A   Overcast
6:53 PM 57.9 °F 48.9 °F 72% 29.76 in 10.0 mi Calm Calm - N/A   Overcast
7:53 PM 55.9 °F 46.0 °F 69% 29.77 in 10.0 mi WSW 5.8 mph - N/A   Clear
8:53 PM 55.9 °F 45.0 °F 67% 29.77 in 10.0 mi SW 3.5 mph - N/A   Scattered Clouds
9:53 PM 55.0 °F 46.0 °F 72% 29.77 in 10.0 mi SW 4.6 mph - N/A   Clear
10:53 PM 55.0 °F 45.0 °F 69% 29.75 in 10.0 mi WSW 6.9 mph - N/A   Clear
11:53 PM 54.0 °F 45.0 °F 72% 29.75 in 10.0 mi WSW 5.8 mph - N/A   Clear